Terug naar catalogus

FENGYUN 1C DEB

ActiefPO
NORAD 32304·DEBRIS·🇨🇳 China

Gelanceerd May 10, 1999 vanaf Taiyuan Satellite Launch Center

Loading…

Volgende Passages (komende 24 uur)

TLE

VerouderendSource: Space-Track

Epoch: Sep 10, 2026, 04:34 UTC

1 32304U 99025CWV 26253.19043527  .00002396  00000-0  58485-3 0  9999
2 32304  99.4201 245.1870 0049583 139.0913 221.4017 14.53002639602122

Volg FENGYUN 1C DEB in realtime met AllMySat

Download on the App Store